Regional Weather Roundup
Issued by NWS New Orleans/Baton Rouge, LA

Home | Current Version | Previous Version | Text Only | Print | Product List | Glossary On
Versions: 1 2 3 4 5 6 7 8 9 10 11 12 13 14 15 16 17 18 19 20 21 22 23 24 25 26 27 28 29 30 31 32 33 34 35 36 37 38 39 40 41 42 43 44 45 46 47 48 49 50
292
ASUS44 KLIX 040505
RWRLIX
NEW ORLEANS REGIONAL WEATHER ROUNDUP
NATIONAL WEATHER SERVICE NEW ORLEANS LA
1100 PM CST TUE MAR 03 2015

NOTE: "FAIR" INDICATES FEW OR NO CLOUDS BELOW 12,000 FEET WITH NO
      SIGNIFICANT WEATHER AND/OR OBSTRUCTIONS TO VISIBILITY.
      SKY/WX - SKY CONDITION AND SIGNIFICANT WEATHER.
      TMP - AIR TEMPERATURE.     DP    - DEWPOINT TEMPERATURE.
      RH  - RELATIVE HUMIDITY.   PRES  - PRESSURE.
      HI  - HEAT INDEX.          WCI   - WIND CHILL INDEX.

*  THESE STATIONS ARE NOT NWS OR FAA STATIONS AND ARE NOT UNDER
   NWS QUALITY CONTROL.

LAZ038-040-048-061>063-065>067-069-040600-
SOUTHEAST LOUISIANA

CITY           SKY/WX    TMP DP  RH WIND       PRES   REMARKS
N.O. AUDUBON     N/A     70  70 100 MISG        N/A
N.O. INTL ARPT MOCLDY    70  65  84 SE9       30.00F
N.O. LAKEFRONT CLEAR     70  65  84 SE8       30.02S
SLIDELL        CLOUDY    68  68 100 SE7       30.02S
BATON ROUGE    MOCLDY    69  67  93 SE7       29.98F
BOOTHVILLE     FOG       64  63  96 E5        30.03F VSB 1/4
BELLE CHASSE   PTCLDY    68  65  90 SE7       30.00F
BOGALUSA*        N/A     70  66  86 S6        30.04F
GALLIANO*      MOCLDY    71  68  90 CALM      30.01F
NEW ROADS*     CLOUDY    69  68  96 SE6       29.98F
GONZALES*      MOCLDY    68  68 100 CALM      29.99F
HAMMOND*       CLOUDY    66  63  88 CALM      30.02F
HOUMA*         MOCLDY    70  69  96 SE7       30.00F
PORT FOURCHON* PTCLDY    70  66  88 SE8       30.04F FOG

$$

MSZ070-080>082-040600-
SOUTHERN MISSISSIPPI

CITY           SKY/WX    TMP DP  RH WIND       PRES   REMARKS
MCCOMB         CLOUDY    67  65  93 S7        30.01S
GULFPORT       CLOUDY    64  63  96 SE13      30.04S FOG
BILOXI         MOCLDY    67  67 100 SE10      30.04S
PASCAGOULA     CLOUDY    66  65  96 SE8       30.05S

$$

COASTAL OBSERVATIONS
LAKE AND NEARSHORE STATIONS

STATION/POSITION TIME  TEMP    WIND        PRES    WAVE
                       AIR SEA DIR/SP/G            HT/PER
                 (UTC) (F)     (DEG/KT/KT) (MB)    (FT/S)
PASCAGOULA       0500   63     130/  3/ 10 1017.2
WAVELAND YACHT   0500   63 59  160/  7/  9 1017.1
GRAND ISLE       0500   67 64  130/  4/  7 1017.0
SOUTHWEST PASS   0500   63 46  150/  7/ 10 1016.9
NEW CANAL        0500   68     130/  3/  7 1016.5
SHELL BEACH      0500   67 62  130/ 11/ 14 1016.5

OFFSHORE STATIONS

STATION/POSITION TIME  TEMP    WIND        PRES    WAVE
                       AIR SEA DIR/SP/G            HT/PER
                 (UTC) (F)     (DEG/KT/KT) (MB)    (FT/S)
64 S DAUPHIN ISL 0407   71 71  150/ 16/ 17 1017.8    4/ 6

$$




USA.gov is the U.S. government's official web portal to all federal, state and local government web resources and services.